W7TIC-13 Weather Reports


time (UTC)temp
F
wind
direction
speed
knots
gust
knots
rain 1hr
in
rain 24hr
in
rain mn
in
humidity
%
barometer
mb
20260906231032 73 191 9.6 13.0 0.00 0.00 0.00 29 1020.7
20260906230101 73 192 8.7 9.6 0.00 0.00 0.00 28 1020.9
20260906225023 73 188 9.6 11.3 0.00 0.00 0.00 28 1020.7
20260906224028 74 194 8.7 9.6 0.00 0.00 0.00 26 1020.7
20260906223015 74 206 8.7 13.0 0.00 0.00 0.00 25 1020.7
20260906222020 75 208 10.4 13.9 0.00 0.00 0.00 23 1020.7
20260906221025 76 197 10.4 13.0 0.00 0.00 0.00 23 1020.5
20260906220030 76 205 11.3 14.8 0.00 0.00 0.00 21 1020.5
20260906215016 76 190 9.6 11.3 0.00 0.00 0.00 20 1020.5
20260906214021 76 194 10.4 15.6 0.00 0.00 0.00 20 1020.5
20260906213026 78 210 10.4 13.9 0.00 0.00 0.00 19 1020.5
20260906212024 77 210 11.3 14.8 0.00 0.00 0.00 21 1020.6
20260906211017 78 192 8.7 13.0 0.00 0.00 0.00 21 1020.9
20260906210023 80 181 8.7 13.9 0.00 0.00 0.00 21 1020.9
20260906205021 80 189 7.8 11.3 0.00 0.00 0.00 22 1020.9
20260906204040 81 195 11.3 14.8 0.00 0.00 0.00 22 1020.9
20260906203039 81 213 11.3 17.4 0.00 0.00 0.00 22 1020.9
20260906202018 80 189 9.6 13.0 0.00 0.00 0.00 23 1021.0
20260906201016 79 197 7.0 14.8 0.00 0.00 0.00 23 1021.1
20260906200016 79 222 7.8 8.7 0.00 0.00 0.00 23 1021.2
20260906195032 79 189 7.0 11.3 0.00 0.00 0.00 24 1021.4
20260906194019 78 208 7.8 11.3 0.00 0.00 0.00 24 1021.5
20260906193025 80 221 10.4 12.2 0.00 0.00 0.00 23 1021.5
20260906192028 79 140 7.8 11.3 0.00 0.00 0.00 24 1021.5
20260906191016 79 171 7.8 10.4 0.00 0.00 0.00 24 1021.6
20260906190020 79 191 6.1 7.0 0.00 0.00 0.00 24 1022.0
20260906185025 78 186 7.0 11.3 0.00 0.00 0.00 24 1022.2
20260906184050 79 214 8.7 10.4 0.00 0.00 0.00 24 1022.4
20260906183021 77 206 7.8 12.2 0.00 0.00 0.00 25 1022.6
20260906182027 78 207 9.6 13.9 0.00 0.00 0.00 25 1022.7
20260906181032 77 185 7.8 10.4 0.00 0.00 0.00 25 1022.8
20260906180018 77 201 7.8 10.4 0.00 0.00 0.00 27 1023.2
20260906175022 76 187 10.4 14.8 0.00 0.00 0.00 27 1023.2
20260906174047 77 207 7.8 9.6 0.00 0.00 0.00 27 1023.6
20260906173031 76 212 9.6 12.2 0.00 0.00 0.00 28 1023.5
20260906172039 76 224 10.4 13.9 0.00 0.00 0.00 28 1023.5
20260906171023 75 172 7.8 11.3 0.00 0.00 0.00 30 1023.6
20260906170029 75 155 7.8 10.4 0.00 0.00 0.00 29 1023.7
20260906165033 75 163 7.8 13.0 0.00 0.00 0.00 30 1023.7
20260906164019 74 182 6.1 7.8 0.00 0.00 0.00 30 1023.8
20260906163024 74 182 7.0 8.7 0.00 0.00 0.00 31 1023.8
20260906162051 74 210 5.2 8.7 0.00 0.00 0.00 30 1023.8
20260906161016 74 156 6.1 9.6 0.00 0.00 0.00 30 1024.0
20260906160020 73 172 5.2 7.8 0.00 0.00 0.00 31 1024.2
20260906155025 72 160 5.2 7.0 0.00 0.00 0.00 30 1024.2
20260906154050 73 137 4.3 6.1 0.00 0.00 0.00 31 1024.3
20260906153017 70 71 3.5 4.3 0.00 0.00 0.00 34 1024.3
20260906152022 68 54 1.7 3.5 0.00 0.00 0.00 37 1024.3
20260906151026 66 35 2.6 4.3 0.00 0.00 0.00 38 1024.4
20260906150031 63 45 1.7 3.5 0.00 0.00 0.00 41 1024.4
20260906145019 60 65 2.6 3.5 0.00 0.00 0.00 44 1024.4
20260906144023 57 65 3.5 4.3 0.00 0.00 0.00 48 1024.4
20260906143028 56 59 2.6 3.5 0.00 0.00 0.00 51 1024.4
20260906142033 54 64 3.5 3.5 0.00 0.00 0.00 53 1024.4
20260906141020 53 37 0.9 3.5 0.00 0.00 0.00 54 1024.3
20260906140024 50 0.0 0.0 0.00 0.00 0.00 59 1024.3
20260906135029 47 42 1.7 4.3 0.00 0.00 0.00 64 1024.0
20260906134016 44 83 3.5 4.3 0.00 0.00 0.00 71 1024.0
20260906133022 40 338 0.0 1.7 0.00 0.00 0.00 76 1024.0
20260906132046 38 39 0.9 1.7 0.00 0.00 0.00 81 1024.0
20260906131025 37 0.0 0.0 0.00 0.00 0.00 83 1024.0
20260906130018 37 0.0 0.0 0.00 0.00 0.00 81 1024.0
20260906125103 37 0.0 0.0 0.00 0.00 0.00 79 1023.8
20260906124021 38 270 0.0 1.7 0.00 0.00 0.00 78 1023.8
20260906123019 39 0.0 0.0 0.00 0.00 0.00 77 1023.7
20260906122018 39 72 1.7 2.6 0.00 0.00 0.00 78 1023.7
20260906121017 39 45 0.9 3.5 0.00 0.00 0.00 76 1023.8
20260906120016 40 229 1.7 2.6 0.00 0.00 0.00 76 1023.8
20260906115033 40 75 2.6 3.5 0.00 0.00 0.00 77 1023.8
20260906114019 40 68 2.6 3.5 0.00 0.00 0.00 78 1023.8
20260906113024 39 62 1.7 3.5 0.00 0.00 0.00 77 1023.9
20260906112030 40 0.0 0.0 0.00 0.00 0.00 74 1023.9
20260906111017 41 0.0 0.0 0.00 0.00 0.00 72 1023.8
20260906110020 42 58 0.9 2.6 0.00 0.00 0.00 71 1023.8
20260906105025 42 52 1.7 2.6 0.00 0.00 0.00 71 1023.8
20260906104051 41 72 2.6 4.3 0.00 0.00 0.00 73 1023.8
20260906103017 41 97 3.5 4.3 0.00 0.00 0.00 74 1023.9
20260906102021 40 86 2.6 3.5 0.00 0.00 0.00 75 1023.9
20260906101026 40 101 1.7 2.6 0.00 0.00 0.00 71 1023.8
20260906100032 41 228 1.7 2.6 0.00 0.00 0.00 69 1023.7
20260906095019 43 252 1.7 2.6 0.00 0.00 0.00 66 1023.7
20260906094043 44 81 2.6 4.3 0.00 0.00 0.00 66 1023.6
20260906093127 44 69 2.6 4.3 0.00 0.00 0.00 66 1023.6
20260906092032 43 101 3.5 5.2 0.00 0.00 0.00 68 1023.7
20260906091019 44 78 3.5 4.3 0.00 0.00 0.00 68 1023.7
20260906090023 44 73 2.6 3.5 0.00 0.00 0.00 66 1023.6
20260906085028 44 90 2.6 3.5 0.00 0.00 0.00 65 1023.6
20260906084015 45 38 1.7 2.6 0.00 0.00 0.00 64 1023.6
20260906083040 45 81 2.6 3.5 0.00 0.00 0.00 64 1023.6
20260906082024 45 90 3.5 4.3 0.00 0.00 0.00 64 1023.6
20260906081029 45 90 2.6 3.5 0.00 0.00 0.00 65 1023.6
20260906080037 45 97 1.7 3.5 0.00 0.00 0.00 65 1023.7
20260906075021 45 70 2.6 3.5 0.00 0.00 0.00 64 1023.8
20260906074026 46 76 2.6 3.5 0.00 0.00 0.00 63 1023.7
20260906073031 46 91 2.6 3.5 0.00 0.00 0.00 61 1023.6
20260906072017 47 95 3.5 4.3 0.00 0.00 0.00 61 1023.6
20260906071044 47 83 3.5 4.3 0.00 0.00 0.00 61 1023.6
20260906070028 47 108 2.6 3.5 0.00 0.00 0.00 60 1023.6
20260906065032 48 65 3.5 4.3 0.00 0.00 0.00 59 1023.4
20260906064019 48 88 2.6 3.5 0.00 0.00 0.00 57 1023.4
20260906063104 49 86 2.6 3.5 0.00 0.00 0.00 55 1023.3
20260906062029 49 77 3.5 3.5 0.00 0.00 0.00 53 1023.2
20260906061015 50 76 2.6 2.6 0.00 0.00 0.00 51 1023.2
20260906060021 51 64 2.6 3.5 0.00 0.00 0.00 50 1023.2
20260906055025 51 80 2.6 3.5 0.00 0.00 0.00 50 1023.2
20260906054030 51 98 3.5 4.3 0.00 0.00 0.00 50 1023.4
20260906053016 51 110 4.3 5.2 0.00 0.00 0.00 49 1023.4
20260906052041 52 83 3.5 4.3 0.00 0.00 0.00 45 1023.4
20260906051026 53 120 3.5 4.3 0.00 0.00 0.00 44 1023.4
20260906050026 53 95 3.5 4.3 0.00 0.00 0.00 42 1023.4
20260906045038 52 105 2.6 3.5 0.00 0.00 0.00 40 1023.4
20260906044023 53 90 0.0 2.6 0.00 0.00 0.00 39 1023.4
20260906043021 53 0.0 0.0 0.00 0.00 0.00 39 1023.3
20260906042020 54 0.0 0.0 0.00 0.00 0.00 37 1023.2
20260906041019 55 0.0 0.0 0.00 0.00 0.00 36 1023.2
20260906040017 55 135 0.9 2.6 0.00 0.00 0.00 36 1023.0
20260906035016 56 0.0 0.0 0.00 0.00 0.00 35 1023.0
20260906034015 57 0.0 0.0 0.00 0.00 0.00 32 1023.0
20260906033020 58 0.0 0.0 0.00 0.00 0.00 31 1022.9
20260906032025 59 225 0.9 1.7 0.00 0.00 0.00 31 1022.8
20260906031029 60 0.0 0.0 0.00 0.00 0.00 30 1022.7
20260906030016 60 0.0 0.0 0.00 0.00 0.00 30 1022.6
20260906025041 62 0.0 0.9 0.00 0.00 0.00 29 1022.4
20260906024026 63 214 2.6 3.5 0.00 0.00 0.00 26 1022.4
20260906023032 64 215 3.5 3.5 0.00 0.00 0.00 26 1022.2
20260906022017 65 214 3.5 4.3 0.00 0.00 0.00 25 1022.2
20260906021022 67 220 4.3 4.3 0.00 0.00 0.00 24 1022.1
20260906020027 68 233 4.3 5.2 0.00 0.00 0.00 23 1022.0
20260906015032 70 230 4.3 5.2 0.00 0.00 0.00 23 1022.0
20260906014019 72 228 5.2 7.0 0.00 0.00 0.00 23 1022.1
20260906013024 75 227 6.1 8.7 0.00 0.00 0.00 21 1022.1
20260906012030 76 220 6.1 7.0 0.00 0.00 0.00 20 1022.1
20260906011015 77 224 6.1 7.8 0.00 0.00 0.00 20 1022.1
20260906010020 77 212 7.0 8.7 0.00 0.00 0.00 20 1022.1
20260906005025 77 210 6.1 7.8 0.00 0.00 0.00 20 1022.1
20260906004030 78 217 7.8 11.3 0.00 0.00 0.00 19 1022.1
20260906003016 78 205 7.8 9.6 0.00 0.00 0.00 19 1022.0
20260906002042 79 219 7.8 9.6 0.00 0.00 0.00 19 1022.0
20260906001027 79 217 7.8 9.6 0.00 0.00 0.00 19 1022.0
20260906000030 80 224 8.7 12.2 0.00 0.00 0.00 19 1021.8
20260905235017 79 211 10.4 13.0 0.00 0.00 0.00 19 1022.0
20260905234023 80 232 10.4 14.8 0.00 0.00 0.00 18 1021.8
20260905233027 80 208 9.6 13.9 0.00 0.00 0.00 18 1021.8
20260905232032 80 209 9.6 13.0 0.00 0.00 0.00 18 1021.8